User: anonymous
Location: Caltech
(34.1382°N, 118.1253°W)
Time: 21:50:14
(UTC-07:00)
Language:

Cosmos 1939 Rocket - Orbit

View from above orbital plane
View from above orbital plane
View from above satellite
View from above satellite

Ground track
Ground track

The orbit data is extracted from the following two-line orbital elements,

1 19046U 88032B   14231.12931780  .00000153  00000-0  17221-4 0  9562
2 19046 097.6427 284.5775 0035305 248.7917 110.9533 14.99630484417630
Epoch (UTC): 19 August 2014 03:06:13
Eccentricity: 0.0035305
inclination: 97.6427°
perigee height: 543 km
apogee height: 592 km
right ascension of ascending node: 284.5775°
argument of perigee: 248.7917°
revolutions per day: 14.99630484
mean anomaly at epoch: 110.9533°
orbit number at epoch: 41763

The dashed part of the orbit path shows where the satellite is in the earth's shadow,  

DLR